Location: Balaclava NSW 2575, Australia
(34.4510°S, 150.4953°E)
Time: 21:25:36
(UTC+10:00)

Hubble Space Telescope - Pass Details

Date: 17 May 2021
Orbit: 535 x 539 km, 28.5° (Epoch: 19 June)

Event Time Altitude Azimuth Distance (km) Brightness Sun altitude
Rises 18:04:32 0° 310° (NW) 2,679 5.6 -12.8°
Reaches altitude 10° 18:07:10 10° 325° (NW) 1,792 4.2 -13.4°
Maximum altitude 18:10:23 22° 16° (NNE) 1,216 2.5 -14.0°
Enters shadow 18:12:41 14° 57° (ENE) 1,544 2.7 -14.5°
